Meteopurmerend
purmerend
Purmerend - Baaienwijk



My webcam  My webcam


waarschuwing voor Onweer Meer informatie blitzortung!


Regen radar Meer informatie rain snow radar


Bezoek onze andere website:

CandyAppleRed WebdesignWebdesign Purmerend Candy Apple Red

MeteopurmerendBlog

Template documentation
and downloads



Onweer van: 26-07-2021 13:00 tot: 21:00 waarschuwing voor: Onweer niveau: Geel info button
Enkele onweersbuien, lokaal met hagel en veel neerslag in korte tijd.Kans op blikseminslag, hagel en veel neerslag in korte tijd.Verkeer en buitenactiviteiten kunnen hinder ondervinden.Mijd open water en open gebied, schuil niet onder bomen.Volg weerberichten en waarschuwingen.

15 daagse weersverwachting Espoo (FI)

  • Overzicht
  • Per uur
  • 15 dagen
  • Extra
  • Vergelijk
  • Kaarten
  • Dagkaart
  • Meer »
  • Info
  • Statistieken
  • Directe link
    Temp 6h Neerslag Wind  
 04:51     22:07    Daglengte: 17:16 Vandaag
21:00
23°
 
1
 04:53     22:05    Daglengte: 17:12 Morgen
03:00
17°
 
2
09:00
22°
 
2
15:00
27°
 
5
21:00
24°
 
3
 04:55     22:02    Daglengte: 17:07 Woensdag 28 Jul
03:00
19°
 
2
09:00
21°
 
4
15:00
20°
4.2 mm
4
21:00
20°
13.2 mm
3
 04:58     22:00    Daglengte: 17:02 Donderdag 29 Jul
03:00
18°
16.5 mm
4
09:00
19°
15.9 mm
4
warningclass
15:00
21°
24.8 mm
6
Locatie info
Region: Uusimaa
Latitude: 60.2068°N
Longitude: 24.6558°E
16 masl
Postcode: 02770
Temp/Neerslag /Baro Onweer/Dauwpunt
    Temp Baro 1h Neerslag Dauwpunt Wind UV Bewolking  
 04:51     22:07    Daglengte: 17:16 Vandaag
18:00
27°
Voelt als: 26.7°
1019.4 hPa   10.5°
2
Windvlaag: 5.4 m/s
5%
19:00
26°
Voelt als: 26.4°
1019.1 hPa   10.8°
2
Windvlaag: 5 m/s
9%
20:00
25°
1019.1 hPa   11.7°
2
Windvlaag: 4.2 m/s
10%
21:00
23°
1019.1 hPa   13.4°
1
Windvlaag: 3.3 m/s
4%
22:00
21°
1019.3 hPa   14.9°
1
Windvlaag: 2.5 m/s
2%
23:00
19°
1019.5 hPa   15.9°
1
Windvlaag: 0.9 m/s
0%
 04:53     22:05    Daglengte: 17:12 Morgen
00:00
19°
1019.6 hPa   15.8°
1
Windvlaag: 1.1 m/s
3%
01:00
18°
1019.5 hPa   16.1°
1
Windvlaag: 1.1 m/s
6%
02:00
17°
1019.4 hPa   16.0°
2
Windvlaag: 0.1 m/s
7%
03:00
17°
1019.3 hPa   16.1°
2
Windvlaag: 0.1 m/s
5%
04:00
17°
1019.2 hPa   16.0°
2
Windvlaag: 0.1 m/s
5%
05:00
17°
1019.0 hPa   16.1°
2
Windvlaag: -1.3 m/s
8%
06:00
17°
1018.8 hPa   16.6°
2
Windvlaag: -1.1 m/s
28%
07:00
18°
1018.7 hPa   17.0°
2
Windvlaag: -1 m/s
30%
08:00
20°
1018.4 hPa   16.5°
2
Windvlaag: -0 m/s
47%
09:00
22°
1018.2 hPa   15.3°
2
Windvlaag: 0.1 m/s
50%
10:00
24°
1018.1 hPa   14.1°
3
Windvlaag: 1.8 m/s
53%
11:00
25°
1017.9 hPa   13.6°
3
Windvlaag: 2.9 m/s
54%
12:00
26°
1017.7 hPa   13.3°
4
Windvlaag: 3.5 m/s
20%
13:00
27°
1017.4 hPa   13.0°
4
Windvlaag: 4 m/s
17%
14:00
27°
1017.1 hPa   12.7°
4
Windvlaag: 4.1 m/s
13%
15:00
27°
Voelt als: 27.1°
1016.5 hPa   12.8°
5
Windvlaag: 3.8 m/s
14%
16:00
27°
Voelt als: 27.1°
1015.9 hPa   12.8°
5
Windvlaag: 3.7 m/s
11%
17:00
27°
Voelt als: 26.9°
1015.3 hPa   12.2°
5
Windvlaag: 3.1 m/s
16%
18:00
27°
1014.9 hPa   12.3°
5
Windvlaag: 3.2 m/s
16%
19:00
26°
1014.3 hPa   12.2°
4
Windvlaag: 3.1 m/s
13%
20:00
25°
1013.8 hPa   12.6°
4
Windvlaag: 2.1 m/s
11%
21:00
24°
1013.5 hPa   13.6°
3
Windvlaag: 2.5 m/s
15%
22:00
22°
1013.3 hPa   15.1°
3
Windvlaag: 2.6 m/s
15%
23:00
21°
1012.9 hPa   15.9°
3
Windvlaag: 1.7 m/s
19%
 04:55     22:02    Daglengte: 17:07 Woensdag 28 Jul
00:00
21°
1012.4 hPa   16.2°
3
Windvlaag: 1.1 m/s
23%
01:00
20°
1012.1 hPa   16.2°
3
Windvlaag: 1.2 m/s
21%
02:00
20°
1011.5 hPa   15.7°
3
Windvlaag: 4.7 m/s
18%
03:00
19°
1011.0 hPa   14.5°
2
Windvlaag: 3.9 m/s
18%
04:00
19°
1010.4 hPa   14.8°
2
Windvlaag: 2.8 m/s
19%
05:00
19°
1010.1 hPa
11%
16.3°
2
Windvlaag: 1.9 m/s
57%
06:00
19°
1009.5 hPa
51%
17.5°
2
Windvlaag: 2 m/s
64%
07:00
20°
1009.2 hPa
14%
17.4°
3
Windvlaag: 4.1 m/s
64%
08:00
19°
1008.6 hPa
58%
15.8°
3
Windvlaag: 4.6 m/s
86%
09:00
21°
1008.4 hPa
12%
15.3°
4
Windvlaag: 1.4 m/s
86%
10:00
22°
1008.1 hPa
17%
14.0°
4
Windvlaag: 2.1 m/s
86%
11:00
22°
1007.9 hPa
78%
12.8°
4
Windvlaag: 2.6 m/s
85%
12:00
21°
1006.9 hPa 1.9 mm
99%
16.4°
4
Windvlaag: 2.7 m/s
99%
13:00
21°
1006.8 hPa 1.2 mm
100%
15.6°
4
Windvlaag: 5.2 m/s
100%
14:00
20°
1006.7 hPa 0.6 mm
100%
18.2°
3
Windvlaag: 7.5 m/s
100%
15:00
20°
1006.3 hPa 0.5 mm
100%
18.2°
4
Windvlaag: 8.2 m/s
100%
16:00
19°
1005.8 hPa 1.2 mm
100%
18.1°
4
Windvlaag: 8.5 m/s
100%
17:00
20°
1005.2 hPa 1.4 mm
100%
17.9°
3
Windvlaag: 8.5 m/s
100% warningclass
18:00
20°
1005.1 hPa 2.2 mm
100%
17.2°
3
Windvlaag: 2.8 m/s
99% warningclass
19:00
20°
1005.2 hPa 2.5 mm
100%
19.0°
4
Windvlaag: 3 m/s
89%
20:00
20°
1004.9 hPa 2.1 mm
97%
19.2°
3
Windvlaag: 3.1 m/s
57%
21:00
20°
1004.6 hPa 3.8 mm
27%
19.4°
3
Windvlaag: 2.7 m/s
68%
22:00
19°
1004.3 hPa 4.1 mm
21%
18.7°
3
Windvlaag: 5.3 m/s
78% warningclass
23:00
18°
1004.3 hPa 4.1 mm
22%
18.5°
3
Windvlaag: 5.5 m/s
92% warningclass
 04:58     22:00    Daglengte: 17:02 Donderdag 29 Jul
00:00
18°
1004.1 hPa 4.5 mm
21%
18.4°
3
Windvlaag: 5.2 m/s
83% warningclass
01:00
18°
1003.7 hPa 3.8 mm
21%
18.3°
3
Windvlaag: 5 m/s
81%
02:00
18°
1003.4 hPa
21%
17.8°
3
Windvlaag: 4.7 m/s
83%
03:00
18°
1003.1 hPa
21%
18.3°
4
Windvlaag: 4.9 m/s
73%
04:00
18°
1002.5 hPa
21%
18.1°
3
Windvlaag: 4.6 m/s
74%
05:00
18°
1002.1 hPa
21%
18.0°
3
Windvlaag: 3.7 m/s
78%
06:00
18°
1001.9 hPa 3.9 mm
21%
18.1°
3
Windvlaag: 3 m/s
99%
07:00
18°
1001.6 hPa 4.2 mm
80%
18.4°
4
Windvlaag: 3 m/s
90%
08:00
19°
1001.4 hPa 3.7 mm
100%
17.9°
4
Windvlaag: 2.4 m/s
100%
09:00
19°
1001.3 hPa 4.1 mm
100%
17.2°
4
Windvlaag: 3.4 m/s
95% warningclass
10:00
20°
1001.1 hPa 4.4 mm
100%
16.6°
4
Windvlaag: 8 m/s
94% warningclass
11:00
20°
1000.8 hPa 4.5 mm
100%
15.7°
4
Windvlaag: 9 m/s
82% warningclass
12:00
20°
1000.5 hPa 4.2 mm
100%
14.9°
5
Windvlaag: 8.5 m/s
96%
13:00
21°
1000.0 hPa 3.9 mm
100%
14.7°
5
Windvlaag: 7.9 m/s
94%
14:00
21°
999.6 hPa 3.9 mm
100%
14.7°
5
Windvlaag: 7.9 m/s
48%
15:00
21°
999.3 hPa 3.9 mm
100%
13.6°
6
Windvlaag: 8.3 m/s
66%
Temp/Neerslag /Baro Onweer/Dauwpunt
    Temp Baro Neerslag Dauwpunt Wind Bewolking  
 04:51     22:07    Daglengte: 17:16 Vandaag
18:00
27°
Voelt als: 26.7°
1019.4 hPa   10.5°
2
5%
21:00
23°
1019.1 hPa   13.4°
1
4%
 04:53     22:05    Daglengte: 17:12 Morgen
00:00
19°
1019.6 hPa   15.8°
1
3%
03:00
17°
1019.3 hPa   16.1°
2
5%
06:00
17°
1018.8 hPa   16.6°
2
28%
09:00
22°
1018.2 hPa   15.3°
2
50%
12:00
26°
1017.7 hPa   13.3°
4
20%
15:00
27°
Voelt als: 27.1°
1016.5 hPa   12.8°
5
14%
18:00
27°
1014.9 hPa   12.3°
5
16%
21:00
24°
1013.5 hPa   13.6°
3
15%
 04:55     22:02    Daglengte: 17:07 Woensdag 28 Jul
00:00
21°
1012.4 hPa   16.2°
3
23%
03:00
19°
1011.0 hPa   14.5°
2
18%
06:00
19°
1009.5 hPa   17.5°
2
64%
09:00
21°
1008.4 hPa   15.3°
4
86%
12:00
21°
1006.9 hPa 1.9 mm 16.4°
4
99%
15:00
20°
1006.3 hPa 2.3 mm 18.2°
4
100%
18:00
20°
1005.1 hPa 4.8 mm 17.2°
3
99% warningclass
21:00
20°
1004.6 hPa 8.4 mm 19.4°
3
68%
 04:58     22:00    Daglengte: 17:02 Donderdag 29 Jul
00:00
18°
1004.1 hPa 12.7 mm 18.4°
3
83% warningclass
03:00
18°
1003.1 hPa 3.8 mm 18.3°
4
73%
06:00
18°
1001.9 hPa 3.9 mm 18.1°
3
99%
09:00
19°
1001.3 hPa 12.0 mm 17.2°
4
95% warningclass
12:00
20°
1000.5 hPa 13.1 mm 14.9°
5
96%
15:00
21°
999.3 hPa 11.7 mm 13.6°
6
66%
18:00
23°
1000.4 hPa 7.5 mm 13.2°
6
0%
21:00
19°
999.9 hPa 7.5 mm 14.9°
5
0%
 05:00     21:57    Daglengte: 16:57 Vrijdag 30 Jul
00:00
18°
998.8 hPa 7.6 mm 14.8°
5
1%
03:00
17°
997.7 hPa 8.4 mm 13.4°
6
1%
06:00
16°
996.4 hPa 8.7 mm 11.8°
6
0%
09:00
17°
995.1 hPa 11.6 mm 14.4°
7
0%
12:00
18°
993.9 hPa 14.3 mm 13.6°
8
1%
15:00
16°
992.8 hPa 21.6 mm 14.6°
6
1%
18:00
16°
990.6 hPa 25.3 mm 13.7°
8
1%
21:00
14°
990.0 hPa 26.0 mm 12.5°
7
1%
 05:02     21:55    Daglengte: 16:53 Zaterdag 31 Jul
00:00
14°
991.4 hPa 26.4 mm 12.3°
6
1%
03:00
13°
992.4 hPa 26.5 mm 11.2°
6
1%
06:00
13°
993.6 hPa 26.5 mm 10.8°
5
0%
09:00
17°
994.7 hPa 26.5 mm 9.9°
5
0%
12:00
22°
995.7 hPa 26.5 mm 8.1°
4
0%
15:00
24°
996.3 hPa 26.5 mm 9.1°
5
0%
18:00
23°
997.6 hPa 26.5 mm 10.3°
5
0%
21:00
18°
999.5 hPa 26.5 mm 12.2°
5
0%
 05:05     21:52    Daglengte: 16:47 Zondag 01 Aug
00:00
14°
1000.8 hPa 26.5 mm 12.6°
3
0%
03:00
13°
1001.1 hPa 26.5 mm 12.7°
2
0%
06:00
14°
1000.7 hPa 26.6 mm 13.3°
2
0%
09:00
18°
999.9 hPa 26.9 mm 15.3°
3
1%
12:00
16°
999.8 hPa 29.5 mm 15.5°
2
1%
15:00
18°
996.5 hPa 34.3 mm 16.7°
5
1%
18:00
19°
997.5 hPa 45.2 mm 16.3°
5
1%
21:00
17°
998.3 hPa 45.4 mm 14.6°
6
1%
 05:07     21:50    Daglengte: 16:43 Maandag 02 Aug
00:00
15°
998.9 hPa 45.6 mm 14.0°
4
0%
03:00
14°
999.2 hPa 45.6 mm 13.7°
2
1%
06:00
15°
1000.0 hPa 45.7 mm 13.8°
2
1%
09:00
19°
999.4 hPa 45.8 mm 13.0°
3
1%
12:00
20°
999.7 hPa 46.2 mm 13.0°
4
1%
15:00
21°
999.1 hPa 92.5 mm 11.6°
3
1%
21:00
17°
997.9 hPa 92.9 mm 13.9°
2
1%
 05:09     21:47    Daglengte: 16:38 Dinsdag 03 Aug
03:00
13°
997.4 hPa 93.2 mm 11.8°
2
1%
09:00
17°
997.6 hPa 93.9 mm 11.7°
5
1%
15:00
18°
1001.2 hPa 94.3 mm 7.9°
5
1%
21:00
15°
1002.4 hPa 94.6 mm 11.1°
5
1%
 05:12     21:45    Daglengte: 16:33 Woensdag 04 Aug
03:00
12°
1003.3 hPa 96.1 mm 10.1°
4
0%
09:00
16°
1005.3 hPa 96.1 mm 8.6°
4
0%
15:00
20°
1005.3 hPa 96.1 mm 7.7°
7
1%
21:00
16°
1006.7 hPa 96.2 mm 11.0°
4
0%
 05:14     21:42    Daglengte: 16:28 Donderdag 05 Aug
03:00
16°
1004.9 hPa 99.7 mm 15.1°
5
1%
09:00
18°
1003.2 hPa 109.7 mm 16.0°
7
1%
15:00
19°
1008.7 hPa 1.9 mm 12.2°
2
62%
21:00
17°
1008.6 hPa 0.3 mm 12.4°
2
59%
 05:17     21:39    Daglengte: 16:22 Vrijdag 06 Aug
03:00
15°
1008.9 hPa 0.6 mm 12.0°
1
54%
09:00
17°
1008.5 hPa 0.5 mm 12.8°
2
54%
15:00
19°
1008.3 hPa 1.1 mm 12.8°
2
57%
21:00
18°
1007.7 hPa 1.0 mm 13.1°
1
58%
 05:19     21:37    Daglengte: 16:18 Zaterdag 07 Aug
03:00
15°
1007.5 hPa 0.6 mm 12.7°
1
58%
09:00
17°
1007.0 hPa 0.5 mm 13.1°
2
63%
15:00
20°
1006.6 hPa 0.5 mm 13.0°
2
61%
21:00
18°
1006.5 hPa 0.6 mm 13.3°
1
63%
 05:21     21:34    Daglengte: 16:13 Zondag 08 Aug
03:00
16°
1006.6 hPa 0.6 mm 12.7°
1
59%
09:00
17°
1006.2 hPa 0.8 mm 13.3°
2
62%
15:00
20°
1006.5 hPa 0.6 mm 13.2°
2
58%
21:00
18°
1006.8 hPa 0.8 mm 13.4°
1
61%
 05:24     21:31    Daglengte: 16:07 Maandag 09 Aug
03:00
16°
1007.1 hPa 1.2 mm 13.3°
1
64%
09:00
17°
1007.0 hPa 0.8 mm 13.7°
2
64%
15:00
19°
1007.4 hPa 1.6 mm 13.5°
2
66%
21:00
17°
1007.6 hPa 0.7 mm 13.5°
1
71%
 05:26     21:29    Daglengte: 16:03 Dinsdag 10 Aug
03:00
15°
1007.6 hPa 0.6 mm 13.0°
1
66%
09:00
17°
1007.4 hPa 0.8 mm 13.4°
1
67%
15:00
19°
1007.7 hPa 2.3 mm 13.6°
2
66%
  CAPE Lifted Index Hail Supercell Tornado SRH 3km CL BTM PRES CL TOP PRES Swiss DWD icon SMHI TS
 04:51     22:07    Daglengte: 17:16 Vandaag
18:00 0 J/kg 3.0 K 0 % 0 % 0 % 0 m²/s² 0 0 7.11 0
19:00 0 J/kg 2.7 K 0 % 0 % 0 % 0 m²/s² 0 0 6.6 0
20:00 0 J/kg 1.9 K 0 % 0 % 0 % 0 m²/s² 0 0 5.71 0
21:00 0 J/kg 1.1 K 0 % 0 % 0 % 0 m²/s² 0 0 4.91 0
22:00 0 J/kg 0.5 K 0 % 0 % 0 % 0 m²/s² 0 0 4.1 0
23:00 0 J/kg 0.0 K 0 % 0 % 0 % 0 m²/s² 0 0 3.6 0
 04:53     22:05    Daglengte: 17:12 Morgen
00:00 0 J/kg -0.2 K 0 % 0 % 0 % 0 m²/s² 0 0 3.31 0
01:00 0 J/kg 0.3 K 0 % 0 % 0 % 0 m²/s² 0 0 3.72 0
02:00 0 J/kg 0.6 K 0 % 0 % 0 % 0 m²/s² 0 0 4.02 1
03:00 0 J/kg 1.4 K 0 % 0 % 0 % 0 m²/s² 0 0 4.64 0
04:00 0 J/kg 1.7 K 0 % 0 % 0 % 0 m²/s² 0 0 5.12 0
05:00 0 J/kg 1.4 K 0 % 0 % 0 % 0 m²/s² 0 0 4.73 0
06:00 1 J/kg 1.4 K 0 % 0 % 0 % 0 m²/s² 0 0 4.82 3
07:00 0 J/kg 1.1 K 0 % 0 % 0 % 0 m²/s² 0 0 4.34 2
08:00 2 J/kg 0.5 K 0 % 0 % 0 % 0 m²/s² 0 0 3.65 3
09:00 22 J/kg -0.1 K 0 % 0 % 0 % 0 m²/s² 0 0 3.05 3
10:00 30 J/kg -0.3 K 0 % 0 % 0 % 0 m²/s² 0 0 2.85 3
11:00 19 J/kg 0.2 K 0 % 0 % 0 % 0 m²/s² 0 0 3.74 3
12:00 14 J/kg 0.4 K 0 % 0 % 0 % 0 m²/s² 0 0 4.21 1
13:00 1 J/kg 0.5 K 0 % 0 % 0 % 0 m²/s² 0 0 4.52 1
14:00 0 J/kg 0.6 K 0 % 0 % 0 % 0 m²/s² 0 0 4.83 1
15:00 5 J/kg 0.4 K 0 % 0 % 0 % 0 m²/s² 0 0 4.87 1
16:00 0 J/kg 0.3 K 0 % 0 % 0 % 0 m²/s² 0 0 4.89 0
17:00 0 J/kg 0.4 K 0 % 0 % 0 % 0 m²/s² 0 0 4.63 0
18:00 0 J/kg 0.6 K 0 % 0 % 0 % 0 m²/s² 0 0 4.53 0
19:00 0 J/kg 0.1 K 0 % 0 % 0 % 0 m²/s² 0 0 3.94 1
20:00 0 J/kg -0.4 K 0 % 0 % 0 % 0 m²/s² 0 0 3.32 0
21:00 0 J/kg -0.7 K 0 % 0 % 0 % 0 m²/s² 0 0 2.93 0
22:00 0 J/kg -0.6 K 0 % 0 % 0 % 0 m²/s² 0 0 3.24 0
23:00 0 J/kg -0.7 K 0 % 0 % 0 % 0 m²/s² 0 0 2.39 1
 04:55     22:02    Daglengte: 17:07 Woensdag 28 Jul
00:00 0 J/kg -1.3 K 0 % 0 % 0 % 0 m²/s² 0 0 -0.4 2
01:00 0 J/kg -2.2 K 0 % 0 % 0 % 0 m²/s² 0 0 -1 2
02:00 0 J/kg -1.8 K 0 % 0 % 0 % 0 m²/s² 0 0 -0.78 0
03:00 0 J/kg -2.0 K 0 % 0 % 0 % 0 m²/s² 0 0 -1.1 2
04:00 0 J/kg -1.4 K 0 % 0 % 0 % 0 m²/s² 0 0 -0.83 2
05:00 0 J/kg -1.6 K 0 % 0 % 0 % 0 m²/s² 0 0 -0.64 2
06:00 0 J/kg -1.7 K 0 % 0 % 0 % 0 m²/s² 0 0 -0.53 3
07:00 0 J/kg -1.3 K 0 % 0 % 0 % 0 m²/s² 0 0 -0.13 3
08:00 0 J/kg -1.1 K 0 % 0 % 0 % 0 m²/s² 0 0 -0.05 3
09:00 61 J/kg -1.2 K 0 % 0 % 0 % 0 m²/s² 0 0 -0.18 3
10:00 153 J/kg -2.3 K 0 % 0 % 0 % 0 m²/s² 0 0 -1.01 3
11:00 320 J/kg -2.1 K 0 % 0 % 0 % 0 m²/s² 0 0 -1.62 3
12:00 454 J/kg -2.6 K 0 % 0 % 0 % 0 m²/s² 0 0 -1.16 61
13:00 573 J/kg -2.5 K 0 % 0 % 0 % 0 m²/s² 0 0 -1.96 61
14:00 267 J/kg -2.3 K 0 % 0 % 0 % 0 m²/s² 0 0 -2.3 80
15:00 98 J/kg -2.0 K 0 % 0 % 0 % 0 m²/s² 0 0 -1.82 3
16:00 0 J/kg 0.2 K 0 % 0 % 0 % 0 m²/s² 0 0 0.83 80
17:00 41 J/kg -1.6 K 0 % 0 % 0 % 0 m²/s² 0 0 -0.22 95
18:00 231 J/kg -2.5 K 0 % 0 % 0 % 0 m²/s² 0 0 -1.84 95
19:00 237 J/kg -1.8 K 0 % 0 % 0 % 0 m²/s² 0 0 -1.53 80
20:00 305 J/kg -1.8 K 0 % 0 % 0 % 0 m²/s² 0 0 -1.17 3
21:00 527 J/kg -2.4 K 0 % 0 % 0 % 0 m²/s² 0 0 -1.83 2
22:00 601 J/kg -2.4 K 0 % 0 % 0 % 0 m²/s² 0 0 -2.13 2
23:00 590 J/kg -2.6 K 0 % 0 % 0 % 0 m²/s² 0 0 -2.51 3
 04:58     22:00    Daglengte: 17:02 Donderdag 29 Jul
00:00 530 J/kg -2.4 K 0 % 0 % 0 % 0 m²/s² 0 0 -2.04 2
01:00 538 J/kg -2.2 K 0 % 0 % 0 % 0 m²/s² 0 0 -1.15 2
02:00 651 J/kg -2.7 K 0 % 0 % 0 % 0 m²/s² 0 0 -1.11 2
03:00 653 J/kg -2.9 K 0 % 0 % 0 % 0 m²/s² 0 0 0.28 2
04:00 572 J/kg -2.5 K 0 % 0 % 0 % 0 m²/s² 0 0 1.73 2
05:00 596 J/kg -2.4 K 0 % 0 % 0 % 0 m²/s² 0 0 1.95 2
06:00 583 J/kg -2.2 K 0 % 0 % 0 % 0 m²/s² 0 0 1.52 3
07:00 592 J/kg -2.0 K 0 % 0 % 0 % 0 m²/s² 0 0 0.91 3
08:00 936 J/kg -3.4 K 0 % 0 % 0 % 0 m²/s² 0 0 -1.3 3
09:00 1217 J/kg -3.7 K 0 % 0 % 0 % 0 m²/s² 0 0 -2.05 80
10:00 1237 J/kg -4.2 K 0 % 0 % 0 % 0 m²/s² 0 0 -2.1 95
11:00 1021 J/kg -3.4 K 0 % 0 % 0 % 0 m²/s² 0 0 -0.16 95
12:00 974 J/kg -3.4 K 0 % 0 % 0 % 0 m²/s² 0 0 0.11 80
13:00 1019 J/kg -3.5 K 0 % 0 % 0 % 0 m²/s² 0 0 0.31 80
14:00 938 J/kg -3.3 K 0 % 0 % 0 % 0 m²/s² 0 0 -0.24 3
15:00 694 J/kg -2.5 K 0 % 0 % 0 % 0 m²/s² 0 0 0.41 80
Temp Baro Wind Neerslag
  EWN Forecast EWN WRFDA DWD ICON FMI HIRLAM MET Norway GFS
 04:51     22:07    Daglengte: 17:16 Vandaag
18:00 27.1° 1019.4 hPa 2.4 m/s 0.0 mm 25.4° 1019.1 hPa 1.9 m/s 0.0 mm 27.7° 1019.3 hPa 2.4 m/s -2.0 mm 26.3° 1019.4 hPa 2.3 m/s 0.0 mm 26.4° 1019.3 hPa 2.5 m/s
21:00 23.1° 1019.1 hPa 1.5 m/s 0.0 mm 21.1° 1018.5 hPa 1.5 m/s 0.0 mm 23.2° 1018.7 hPa 1.5 m/s 0.0 mm 22.2° 1019.1 hPa 1.3 m/s 0.0 mm 21.9° 1018.9 hPa 1.7 m/s
 04:53     22:05    Daglengte: 17:12 Morgen
00:00 18.6° 1019.6 hPa 1.1 m/s 0.0 mm 17.0° 1019.0 hPa 2.5 m/s 0.0 mm 19.1° 1019.6 hPa 0.0 m/s 0.0 mm 15.4° 1019.6 hPa 1.1 m/s 0.0 mm 18.6° 1019.2 hPa 0.7 m/s
03:00 17.2° 1019.3 hPa 1.6 m/s 0.0 mm 15.7° 1019.0 hPa 2.4 m/s 0.0 mm 17.8° 1018.8 hPa 1.2 m/s 0.0 mm 13.6° 1019.3 hPa 1.5 m/s 0.0 mm 17.2° 1019.3 hPa 1.8 m/s
06:00 17.1° 1018.8 hPa 1.6 m/s 0.0 mm 17.4° 1018.5 hPa 2.1 m/s 0.0 mm 17.7° 1018.5 hPa 1.4 m/s 0.0 mm 13.2° 1019.2 hPa 1.3 m/s 0.0 mm 17.6° 1018.8 hPa 2.0 m/s
09:00 22.2° 1018.2 hPa 2.4 m/s 0.0 mm 22.5° 1017.8 hPa 3.4 m/s 0.0 mm 22.4° 1017.9 hPa 2.6 m/s 0.0 mm 21.1° 1018.6 hPa 1.6 m/s 0.0 mm 23.1° 1018.0 hPa 2.6 m/s
12:00 26.1° 1017.7 hPa 3.9 m/s 0.0 mm 25.3° 1017.0 hPa 5.1 m/s 0.0 mm 25.6° 1017.5 hPa 3.9 m/s 0.0 mm 26.2° 1017.9 hPa 3.1 m/s 0.0 mm 25.6° 1017.3 hPa 4.1 m/s
15:00 27.2° 1016.5 hPa 4.5 m/s 0.0 mm 25.7° 1016.0 hPa 5.7 m/s 0.0 mm 27.4° 1016.0 hPa 4.2 m/s 0.0 mm 27.0° 1016.8 hPa 4.0 m/s 0.0 mm 26.6° 1016.1 hPa 4.6 m/s
18:00 26.7° 1014.9 hPa 4.7 m/s 0.0 mm 25.1° 1014.4 hPa 6.1 m/s 0.0 mm 27.8° 1014.3 hPa 4.5 m/s 0.0 mm 26.3° 1015.0 hPa 3.8 m/s 0.0 mm 26.0° 1014.9 hPa 4.9 m/s
21:00 24.1° 1013.5 hPa 3.3 m/s 0.0 mm 22.6° 1012.7 hPa 4.2 m/s 0.0 mm 24.6° 1013.2 hPa 3.1 m/s 0.0 mm 22.5° 1013.8 hPa 1.7 m/s 0.0 mm 22.2° 1013.6 hPa 3.8 m/s
 04:55     22:02    Daglengte: 17:07 Woensdag 28 Jul
00:00 20.8° 1012.4 hPa 2.9 m/s 0.0 mm 22.0° 1011.7 hPa 4.6 m/s 0.0 mm 20.9° 1012.3 hPa 2.5 m/s 0.0 mm 16.5° 1013.0 hPa 1.6 m/s 0.0 mm 18.5° 1013.5 hPa 2.5 m/s
03:00 19.4° 1011.0 hPa 2.4 m/s 0.0 mm 19.5° 1009.9 hPa 3.8 m/s 0.1 mm 19.8° 1010.9 hPa 2.3 m/s 0.0 mm 16.0° 1011.4 hPa 2.3 m/s 0.0 mm 17.9° 1012.1 hPa 2.0 m/s
06:00 19.0° 1009.5 hPa 2.3 m/s 0.0 mm 19.5° 1008.4 hPa 4.5 m/s 0.2 mm 19.6° 1009.5 hPa 2.0 m/s 0.0 mm 14.9° 1010.3 hPa 2.4 m/s 0.0 mm 17.6° 1010.5 hPa 2.5 m/s
09:00 20.9° 1008.4 hPa 3.6 m/s 0.0 mm 21.3° 1007.6 hPa 5.1 m/s 0.3 mm 21.2° 1008.4 hPa 3.5 m/s 0.0 mm 21.3° 1009.1 hPa 2.8 m/s 0.0 mm 18.4° 1009.5 hPa 3.6 m/s
12:00 21.2° 1006.9 hPa 4.5 m/s 1.9 mm 23.3° 1006.7 hPa 5.3 m/s 0.8 mm 21.5° 1008.0 hPa 3.4 m/s 0.2 mm 18.1° 1008.6 hPa 4.2 m/s
15:00 20.1° 1006.3 hPa 4.0 m/s 2.3 mm 20.3° 1006.4 hPa 7.3 m/s 3.1 mm 20.4° 1007.2 hPa 3.0 m/s 1.1 mm 18.1° 1006.9 hPa 3.4 m/s
18:00 19.8° 1005.1 hPa 2.8 m/s 4.8 mm 21.3° 1005.0 hPa 2.7 m/s 13.9 mm 19.7° 1006.2 hPa 2.3 m/s 2.1 mm 20.5° 1005.8 hPa 2.7 m/s
21:00 19.5° 1004.6 hPa 2.7 m/s 8.4 mm 19.5° 1004.5 hPa 1.9 m/s 27.4 mm 19.8° 1005.5 hPa 2.7 m/s 0.5 mm 19.9° 1004.8 hPa 3.2 m/s
 04:58     22:00    Daglengte: 17:02 Donderdag 29 Jul
00:00 18.4° 1004.1 hPa 3.3 m/s 12.7 mm 18.7° 1004.1 hPa 3.0 m/s 32.5 mm 18.3° 1005.0 hPa 2.2 m/s 0.0 mm 17.2° 1004.9 hPa 2.3 m/s
03:00 18.3° 1003.1 hPa 3.8 m/s 3.8 mm 18.4° 1003.2 hPa 3.8 m/s 32.5 mm 17.7° 1003.9 hPa 2.1 m/s 0.0 mm 16.9° 1003.7 hPa 2.6 m/s
06:00 18.1° 1001.9 hPa 3.2 m/s 3.9 mm 18.6° 1001.9 hPa 2.8 m/s 32.5 mm 17.9° 1002.6 hPa 2.3 m/s 0.0 mm 17.3° 1002.8 hPa 3.1 m/s
09:00 19.1° 1001.3 hPa 4.2 m/s 12.0 mm 20.8° 1002.0 hPa 4.3 m/s 32.6 mm 19.0° 1001.4 hPa 3.5 m/s 0.8 mm 20.4° 1001.5 hPa 4.4 m/s
12:00 20.4° 1000.5 hPa 4.7 m/s 13.1 mm 22.9° 1001.3 hPa 6.3 m/s 32.7 mm 19.8° 1000.2 hPa 4.3 m/s 3.2 mm 23.7° 1001.1 hPa 6.1 m/s
15:00 21.1° 999.3 hPa 5.6 m/s 11.7 mm 24.1° 1001.1 hPa 6.9 m/s 32.9 mm 20.3° 998.8 hPa 5.2 m/s 1.1 mm 24.0° 1000.9 hPa 6.7 m/s
18:00 22.9° 1000.4 hPa 6.3 m/s 7.5 mm 22.9° 1000.4 hPa 6.3 m/s 7.5 mm
21:00 19.4° 999.9 hPa 4.7 m/s 7.5 mm 19.4° 999.9 hPa 4.7 m/s 7.5 mm
 05:00     21:57    Daglengte: 16:57 Vrijdag 30 Jul
00:00 17.9° 998.8 hPa 4.9 m/s 7.6 mm 17.9° 998.8 hPa 4.9 m/s 7.6 mm
03:00 16.6° 997.7 hPa 5.5 m/s 8.4 mm 16.6° 997.7 hPa 5.5 m/s 8.4 mm
06:00 16.1° 996.4 hPa 5.7 m/s 8.7 mm 16.1° 996.4 hPa 5.7 m/s 8.7 mm
09:00 16.8° 995.1 hPa 7.5 m/s 11.6 mm 16.8° 995.1 hPa 7.5 m/s 11.6 mm
12:00 18.3° 993.9 hPa 8.3 m/s 14.3 mm 18.3° 993.9 hPa 8.3 m/s 14.3 mm
15:00 15.6° 992.8 hPa 5.7 m/s 21.6 mm 15.6° 992.8 hPa 5.7 m/s 21.6 mm
18:00 15.5° 990.6 hPa 7.7 m/s 25.3 mm 15.5° 990.6 hPa 7.7 m/s 25.3 mm
21:00 13.8° 990.0 hPa 7.1 m/s 26.0 mm 13.8° 990.0 hPa 7.1 m/s 26.0 mm
 05:02     21:55    Daglengte: 16:53 Zaterdag 31 Jul
00:00 13.9° 991.4 hPa 5.7 m/s 26.4 mm 13.9° 991.4 hPa 5.7 m/s 26.4 mm
03:00 13.5° 992.4 hPa 6.2 m/s 26.5 mm 13.5° 992.4 hPa 6.2 m/s 26.5 mm
06:00 13.1° 993.6 hPa 4.6 m/s 26.5 mm 13.1° 993.6 hPa 4.6 m/s 26.5 mm
09:00 17.4° 994.7 hPa 4.8 m/s 26.5 mm 17.4° 994.7 hPa 4.8 m/s 26.5 mm
12:00 21.7° 995.7 hPa 3.9 m/s 26.5 mm 21.7° 995.7 hPa 3.9 m/s 26.5 mm
15:00 23.5° 996.3 hPa 4.7 m/s 26.5 mm 23.5° 996.3 hPa 4.7 m/s 26.5 mm
18:00 22.5° 997.6 hPa 5.5 m/s 26.5 mm 22.5° 997.6 hPa 5.5 m/s 26.5 mm
21:00 18.1° 999.5 hPa 4.9 m/s 26.5 mm 18.1° 999.5 hPa 4.9 m/s 26.5 mm
 05:05     21:52    Daglengte: 16:47 Zondag 01 Aug
00:00 14.0° 1000.8 hPa 3.0 m/s 26.5 mm 14.0° 1000.8 hPa 3.0 m/s 26.5 mm
03:00 13.5° 1001.1 hPa 1.7 m/s 26.5 mm 13.5° 1001.1 hPa 1.7 m/s 26.5 mm
06:00 14.4° 1000.7 hPa 1.9 m/s 26.6 mm 14.4° 1000.7 hPa 1.9 m/s 26.6 mm
09:00 18.4° 999.9 hPa 3.3 m/s 26.9 mm 18.4° 999.9 hPa 3.3 m/s 26.9 mm
12:00 16.3° 999.8 hPa 2.4 m/s 29.5 mm 16.3° 999.8 hPa 2.4 m/s 29.5 mm
15:00 17.7° 996.5 hPa 5.0 m/s 34.3 mm 17.7° 996.5 hPa 5.0 m/s 34.3 mm
18:00 18.9° 997.5 hPa 5.4 m/s 45.2 mm 18.9° 997.5 hPa 5.4 m/s 45.2 mm
21:00 17.2° 998.3 hPa 5.8 m/s 45.4 mm 17.2° 998.3 hPa 5.8 m/s 45.4 mm
 05:07     21:50    Daglengte: 16:43 Maandag 02 Aug
00:00 15.4° 998.9 hPa 3.5 m/s 45.6 mm 15.4° 998.9 hPa 3.5 m/s 45.6 mm
03:00 14.4° 999.2 hPa 2.1 m/s 45.6 mm 14.4° 999.2 hPa 2.1 m/s 45.6 mm
06:00 14.8° 1000.0 hPa 2.2 m/s 45.7 mm 14.8° 1000.0 hPa 2.2 m/s 45.7 mm
09:00 18.9° 999.4 hPa 3.2 m/s 45.8 mm 18.9° 999.4 hPa 3.2 m/s 45.8 mm
12:00 19.9° 999.7 hPa 3.9 m/s 46.2 mm 19.9° 999.7 hPa 3.9 m/s 46.2 mm
15:00 20.9° 999.1 hPa 3.3 m/s 46.3 mm 20.9° 999.1 hPa 3.3 m/s 46.3 mm
21:00 16.6° 997.9 hPa 2.2 m/s 46.6 mm 16.6° 997.9 hPa 2.2 m/s 46.6 mm
 05:09     21:47    Daglengte: 16:38 Dinsdag 03 Aug
03:00 13.4° 997.4 hPa 2.2 m/s 46.6 mm 13.4° 997.4 hPa 2.2 m/s 46.6 mm
09:00 17.4° 997.6 hPa 5.2 m/s 47.1 mm 17.4° 997.6 hPa 5.2 m/s 47.1 mm
15:00 18.2° 1001.2 hPa 5.4 m/s 47.2 mm 18.2° 1001.2 hPa 5.4 m/s 47.2 mm
21:00 14.6° 1002.4 hPa 4.9 m/s 47.4 mm 14.6° 1002.4 hPa 4.9 m/s 47.4 mm
 05:12     21:45    Daglengte: 16:33 Woensdag 04 Aug
03:00 11.7° 1003.3 hPa 4.1 m/s 48.1 mm 11.7° 1003.3 hPa 4.1 m/s 48.1 mm
09:00 16.0° 1005.3 hPa 4.0 m/s 48.1 mm 16.0° 1005.3 hPa 4.0 m/s 48.1 mm
15:00 20.4° 1005.3 hPa 7.1 m/s 48.1 mm 20.4° 1005.3 hPa 7.1 m/s 48.1 mm
21:00 16.4° 1006.7 hPa 4.2 m/s 48.2 mm 16.4° 1006.7 hPa 4.2 m/s 48.2 mm
 05:14     21:42    Daglengte: 16:28 Donderdag 05 Aug
03:00 16.1° 1004.9 hPa 5.3 m/s 50.9 mm 16.1° 1004.9 hPa 5.3 m/s 50.9 mm
09:00 17.7° 1003.2 hPa 6.6 m/s 55.9 mm 17.7° 1003.2 hPa 6.6 m/s 55.9 mm
15:00 18.6° 1008.7 hPa 2.0 m/s 1.9 mm
21:00 16.8° 1008.6 hPa 1.5 m/s 0.3 mm
 05:17     21:39    Daglengte: 16:22 Vrijdag 06 Aug
03:00 14.7° 1008.9 hPa 0.8 m/s 0.6 mm
09:00 16.8° 1008.5 hPa 1.6 m/s 0.5 mm
15:00 19.4° 1008.3 hPa 1.6 m/s 1.1 mm
21:00 17.5° 1007.7 hPa 0.9 m/s 1.0 mm
 05:19     21:37    Daglengte: 16:18 Zaterdag 07 Aug
03:00 15.4° 1007.5 hPa 1.4 m/s 0.6 mm
09:00 17.3° 1007.0 hPa 2.1 m/s 0.5 mm
15:00 20.2° 1006.6 hPa 2.4 m/s 0.5 mm
21:00 17.8° 1006.5 hPa 1.4 m/s 0.6 mm
 05:21     21:34    Daglengte: 16:13 Zondag 08 Aug
03:00 15.8° 1006.6 hPa 1.5 m/s 0.6 mm
09:00 17.3° 1006.2 hPa 2.4 m/s 0.8 mm
15:00 19.9° 1006.5 hPa 2.1 m/s 0.6 mm
21:00 17.6° 1006.8 hPa 1.0 m/s 0.8 mm
 05:24     21:31    Daglengte: 16:07 Maandag 09 Aug
03:00 15.6° 1007.1 hPa 1.3 m/s 1.2 mm
09:00 17.1° 1007.0 hPa 1.5 m/s 0.8 mm
15:00 19.5° 1007.4 hPa 1.9 m/s 1.6 mm
21:00 17.3° 1007.6 hPa 0.9 m/s 0.7 mm
 05:26     21:29    Daglengte: 16:03 Dinsdag 10 Aug
03:00 15.3° 1007.6 hPa 0.6 m/s 0.6 mm
09:00 16.9° 1007.4 hPa 1.0 m/s 0.8 mm
15:00 18.9° 1007.7 hPa 2.0 m/s 2.3 mm
FMI Hirlam - 7.5 km EWN WRFDA - 12 km DWD ICON - 7 km GFS - 25 km Basiskaart






























































Updatetijd (Europe/Amsterdam) Resolutie Lengte Stap
FMI Hirlam 14:00, 20:00, 02:00, 08:00 7.5 km 49h 1h
EWN WRFDA 10:30, 16:30, 22:30, 04:30 12 km 73h 1h
DWD ICON 11:45, 17:45, 23:45, 05:45 7 km 75h 1h
GFS 14:15, 20:15, 02:15, 08:15 25 km 237h 3h
30+ mm
25-30 mm
20-25 mm
15-20 mm
10-15 mm
6-10 mm
4-6 mm
2-4 mm
1-2 mm
0.5-1 mm
0.2-0.5 mm
0.1-0.2 mm
30+ mm
25-30 mm
20-25 mm
15-20 mm
10-15 mm
6-10 mm
4-6 mm
2-4 mm
1-2 mm
0.5-1 mm
0.2-0.5 mm
0.1-0.2 mm
Sneeuwval
Natte sneeuw
Hagel
Vorst
30+ mm
25-30 mm
20-25 mm
15-20 mm
10-15 mm
6-10 mm
4-6 mm
2-4 mm
1-2 mm
0.5-1 mm
0.2-0.5 mm
0.1-0.2 mm
Sneeuwval
Natte sneeuw
Hagel
Vorst
Onweer
50 mm
40 mm
30 mm
26 mm
22 mm
18 mm
14 mm
10 mm
9 mm
8 mm
7 mm
6 mm
5 mm
4.5 mm
4 mm
3.5 mm
3 mm
2.5 mm
2 mm
1.5 mm
1 mm
0.8 mm
0.6 mm
0.4 mm
0.2 mm
0.05 mm
35°
30°
25°
20°
15°
10°
-5°
-10°
-15°
-20°
-25°
-30°
-35°
33> m/s
29 m/s
25 m/s
21 m/s
17 m/s
14 m/s
11 m/s
8 m/s
5 m/s
3 m/s
0 m/s
2600 J/kg
2400 J/kg
2200 J/kg
2000 J/kg
1800 J/kg
1600 J/kg
1400 J/kg
1200 J/kg
1000 J/kg
800 J/kg
600 J/kg
400 J/kg
200 J/kg
70 dBZ
65 dBZ
60 dBZ
55 dBZ
50 dBZ
45 dBZ
40 dBZ
35 dBZ
30 dBZ
25 dBZ
20 dBZ
15 dBZ
10 dBZ
5 dBZ
-1 K
-2 K
-3 K
-4 K
-5 K
-6 K
-7 K
-8 K